Weather History for Marrakech, Morocco

Change the Weather History Date:

Wednesday, February 22, 2012

  Actual Average Record
Temperature  
Mean Temperature 54 °F -  
Max Temperature 68 °F 71 °F 78 °F (1997)
Min Temperature 41 °F 49 °F 39 °F (2007)
Degree Days  
Heating Degree Days 10    
Growing Degree Days 4 (Base 50)    
Moisture  
Dew Point 36 °F    
Average Humidity 53    
Maximum Humidity 87    
Minimum Humidity 12    
Precipitation  
Precipitation 0.00 in 0.05 in - ()
Sea Level Pressure  
Sea Level Pressure 30.21 in    
Wind  
Wind Speed 5 mph ()    
Max Wind Speed 12 mph    
Max Gust Speed -    
Visibility 5.6 miles    
Events      
Averages and records for this station are not official NWS values.
T = Trace of Precipitation, MM = Missing Value Source: Averaged Metar Reports

Daily Weather History Graph

Daily Weather History Graph

Search for Another Location

Airport:

Trip Planner

Search our weather history database for the weather conditions in past years. The results will help you decide how hot, cold, wet, or windy it might be!

Date:

Astronomy

Feb. 22, 2012 Rise Set
Actual Time 7:07 AM WET 6:24 PM WET
Civil Twilight 6:42 AM WET 6:48 PM WET
Nautical Twilight 6:14 AM WET 7:17 PM WET
Astronomical Twilight 5:46 AM WET 7:45 PM WET
Moon 7:04 AM WET 7:10 PM WET
Length of Visible Light 12h 05m
Length of Day
11h 16m
New Moon, 0% of the Moon is Illuminated
Feb 22
New Moon
Mar 1
First Quarter
Mar 8
Full
Mar 15
Last Quarter
Mar 22
New

Hourly Weather History & Observations

Time (WET) Temp. Windchill Dew Point Humidity Pressure Visibility Wind Dir Wind Speed Gust Speed Precip Events Conditions
12:00 AM 51 °F - 41 °F 60% 30.30 in 6 mi ENE 6.9 mph - -  
12:00 AM 50.0 °F - 41.0 °F 71% 30.27 in - ENE 6.9 mph - N/A   Clear
12:30 AM 50.0 °F - 39.2 °F 66% 30.27 in - ENE 4.6 mph - N/A   Clear
1:00 AM 48.2 °F - 37.4 °F 66% 30.27 in - East 5.8 mph - N/A   Clear
1:30 AM 48.2 °F - 39.2 °F 71% 30.27 in - East 2.3 mph - N/A   Clear
2:00 AM 48.2 °F - 39.2 °F 71% 30.27 in - ESE 2.3 mph - N/A   Clear
2:30 AM 48.2 °F - 37.4 °F 66% 30.27 in 6.2 mi Calm Calm - N/A   Unknown
3:00 AM 46 °F - 38 °F 65% 30.30 in 6 mi ENE 2.3 mph - -  
3:00 AM 46.4 °F - 37.4 °F 71% 30.27 in 6.2 mi ENE 2.3 mph - N/A   Unknown
3:30 AM 46.4 °F - 37.4 °F 71% 30.24 in 6.2 mi NNE 1.2 mph - N/A   Unknown
4:00 AM 42.8 °F 40.1 °F 37.4 °F 81% 30.24 in - SE 4.6 mph - N/A   Clear
4:30 AM 44.6 °F 43.1 °F 39.2 °F 81% 30.24 in - SE 3.5 mph - N/A   Clear
5:00 AM 44.6 °F 43.1 °F 39.2 °F 81% 30.24 in 5.6 mi ESE 3.5 mph - N/A   Unknown
5:30 AM 42.8 °F 41.1 °F 35.6 °F 76% 30.24 in 5.0 mi East 3.5 mph - N/A   Unknown
6:00 AM 42 °F - 37 °F 78% 30.29 in 4 mi East 2.3 mph - -  
6:00 AM 42.8 °F - 37.4 °F 81% 30.24 in 4.3 mi East 2.3 mph - N/A   Unknown
6:30 AM 42.8 °F - 39.2 °F 87% 30.24 in 4.3 mi East 2.3 mph - N/A   Unknown
7:00 AM 42.8 °F - 37.4 °F 81% 30.24 in 5.0 mi ENE 2.3 mph - N/A   Unknown
7:30 AM 41.0 °F 39.0 °F 37.4 °F 87% 30.24 in 5.0 mi ENE 3.5 mph - N/A   Unknown
8:00 AM 44.6 °F 43.1 °F 39.2 °F 81% 30.27 in 4.3 mi East 3.5 mph - N/A   Unknown
8:30 AM 46.4 °F 45.2 °F 39.2 °F 76% 30.27 in 3.7 mi East 3.5 mph - N/A   Unknown
9:00 AM 49 °F - 40 °F 62% 30.30 in 5 mi East 4.6 mph - -   Clear
9:00 AM 50.0 °F - 39.2 °F 66% 30.27 in 5.0 mi East 3.5 mph - N/A   Unknown
9:30 AM 51.8 °F - 41.0 °F 67% 30.27 in 5.0 mi NE 3.5 mph - N/A   Unknown
10:00 AM 53.6 °F - 41.0 °F 62% 30.27 in 5.0 mi NE 5.8 mph - N/A   Unknown
10:30 AM 55.4 °F - 41.0 °F 58% 30.27 in 4.3 mi NE 4.6 mph - N/A   Unknown
11:00 AM 57.2 °F - 41.0 °F 55% 30.27 in 5.0 mi Variable 3.5 mph - N/A   Unknown
11:30 AM 59.0 °F - 39.2 °F 48% 30.24 in 5.0 mi NE 4.6 mph - N/A   Unknown
12:00 PM 60 °F - 37 °F 30% 30.24 in 6 mi NE 5.8 mph - -   Clear
12:30 PM 60.8 °F - 35.6 °F 39% 30.24 in 6.2 mi NNE 5.8 mph - N/A   Unknown
1:00 PM 62.6 °F - 35.6 °F 37% 30.21 in - NNE 4.6 mph - N/A   Clear
1:30 PM 64.4 °F - 33.8 °F 32% 30.21 in - North 6.9 mph - N/A   Clear
2:00 PM 64.4 °F - 32.0 °F 30% 30.18 in - NE 8.1 mph - N/A   Clear
2:30 PM 66.2 °F - 28.4 °F 24% 30.18 in - Calm Calm - N/A   Clear
3:00 PM 67 °F - 32 °F 17% 30.13 in 6 mi NNE 4.6 mph - -  
3:00 PM 68.0 °F - 32.0 °F 26% 30.15 in - NE 4.6 mph - N/A   Clear
3:30 PM 68.0 °F - 35.6 °F 30% 30.15 in - Variable 5.8 mph - N/A   Clear
4:00 PM 68.0 °F - 32.0 °F 26% 30.15 in - NNE 8.1 mph - N/A   Clear
4:30 PM 68.0 °F - 32.0 °F 26% 30.15 in 6.2 mi NNE 6.9 mph - N/A   Partly Cloudy
5:00 PM 68.0 °F - 30.2 °F 24% 30.15 in 6.2 mi North 6.9 mph - N/A   Partly Cloudy
5:30 PM 66.2 °F - 28.4 °F 24% 30.15 in 6.2 mi NNE 9.2 mph - N/A   Partly Cloudy
6:00 PM 66 °F - 26 °F 12% 30.12 in 6 mi NNE 9.2 mph - -   Scattered Clouds
6:00 PM 66.2 °F - 26.6 °F 23% 30.15 in 6.2 mi NNE 8.1 mph - N/A   Scattered Clouds
6:30 PM 64.4 °F - 26.6 °F 24% 30.15 in 6.2 mi NNE 9.2 mph - N/A   Scattered Clouds
7:00 PM 62.6 °F - 24.8 °F 24% 30.15 in 6.2 mi NNE 9.2 mph - N/A   Scattered Clouds
7:30 PM 62.6 °F - 28.4 °F 27% 30.15 in 6.2 mi NE 6.9 mph - N/A   Scattered Clouds
8:00 PM 60.8 °F - 32.0 °F 34% 30.15 in 6.2 mi NE 5.8 mph - N/A   Scattered Clouds
8:30 PM 59.0 °F - 30.2 °F 34% 30.15 in 6.2 mi NE 4.6 mph - N/A   Scattered Clouds
9:00 PM 60 °F - 32 °F 23% 30.15 in 6 mi NE 8.1 mph - -   Scattered Clouds
9:00 PM 59.0 °F - 32.0 °F 36% 30.15 in 6.2 mi NE 8.1 mph - N/A   Scattered Clouds
9:30 PM 59.0 °F - 39.2 °F 48% 30.15 in 6.2 mi NNE 11.5 mph - N/A   Scattered Clouds
10:00 PM 55.4 °F - 42.8 °F 63% 30.18 in 6.2 mi NE 11.5 mph - N/A   Partly Cloudy
10:30 PM 53.6 °F - 41.0 °F 62% 30.18 in 6.2 mi NNE 5.8 mph - N/A   Partly Cloudy
11:00 PM 51.8 °F - 41.0 °F 67% 30.18 in 6.2 mi East 6.9 mph - N/A   Partly Cloudy
11:30 PM 51.8 °F - 41.0 °F 67% 30.15 in 6.2 mi ENE 6.9 mph - N/A   Partly Cloudy